Date String (YYYY-MM-DD hh:mm:ss) UTC,Instrument flags,absolute air pressure of the measurement (hPa),sample flow rate (lpm),inlet stack bypass flow (lpm),air temperature of the measurement (°C),ambient temperature measured by the external sensor (°C),aerosol sample conditioner tube jacket temperature (°C),OPC LED temperature (°C),internal box temperature (°C),relative humidity of the measurement (%),span deviation,mass concentration of particles derived from Lorenz-Mie calculation of OPC scattering (μg/m³),mass concentration of particles derived from Lorenz-Mie calculation of OPC scattering (μg/m³),mass concentration of particles derived from Lorenz-Mie calculation of OPC scattering (μg/m³)
DateTimeUTC,F1_M11,P_M11,Q1_M11,Q2_M11,T1_M11,T2_M11,T3_M11,T4_M11,T5_M11,U1_M11,ZSPAN_M11,X0_M11,X2_M11,X1_M11
2023-08-27 02:00:00,SystemResetWarning,0836.6,5.00,000.00,030.9,024.7,000.0,038.9,030.1,33.2,0000.0,0008.69,0006.27,0006.05
2023-08-27 02:01:00,SystemResetWarning,0836.6,5.00,000.00,030.8,025.2,000.0,038.9,030.2,33.7,0000.0,0008.67,0006.26,0006.03
2023-08-27 02:02:00,SystemResetWarning,0836.6,5.00,000.00,030.8,025.7,000.0,038.9,030.3,33.8,0000.0,0008.64,0006.23,0006.00
2023-08-27 02:03:00,SystemResetWarning,0836.6,5.00,000.00,030.7,026.0,000.0,038.9,030.4,34.1,0000.0,0008.74,0006.26,0006.00
2023-08-27 02:04:00,SystemResetWarning,0836.6,5.00,000.00,030.7,026.4,000.0,038.9,030.5,34.4,0000.0,0008.63,0006.24,0006.00
2023-08-27 02:05:00,SystemResetWarning,0836.6,4.98,000.00,030.6,026.7,000.0,038.9,030.6,34.9,-001.2,0008.63,0006.26,0006.03
2023-08-27 02:06:00,SystemResetWarning,0836.6,5.01,000.00,030.7,026.9,000.0,038.9,030.7,35.1,-000.2,0008.74,0006.29,0006.05
2023-08-27 02:07:00,SystemResetWarning,0836.6,5.01,000.00,030.8,027.1,000.0,038.8,030.8,34.7,0000.0,0008.78,0006.32,0006.09
2023-08-27 02:08:00,SystemResetWarning,0836.7,4.99,000.00,031.0,027.2,000.0,038.8,030.9,34.5,0000.0,0009.38,0006.36,0006.13
2023-08-27 02:09:00,SystemResetWarning,0836.7,5.02,000.00,031.0,027.4,000.0,038.9,030.9,34.0,0000.0,0009.53,0006.42,0006.17
2023-08-27 02:10:00,SystemResetWarning,0836.7,4.98,000.00,031.1,026.5,000.0,038.8,030.8,34.0,0000.0,0009.91,0006.47,0006.21
2023-08-27 02:11:00,SystemResetWarning,0836.6,5.00,000.00,031.1,024.8,000.0,038.6,030.5,34.0,0000.0,0009.98,0006.53,0006.27
2023-08-27 02:12:00,SystemResetWarning,0836.6,5.02,000.00,031.0,024.1,000.0,038.5,030.3,34.1,0000.0,0010.24,0006.59,0006.31
2023-08-27 02:13:00,SystemResetWarning,0836.6,5.00,000.00,030.8,024.2,000.0,038.5,030.1,34.3,0000.0,0010.59,0006.65,0006.35
2023-08-27 02:14:00,SystemResetWarning,0836.6,4.98,000.00,030.6,024.5,000.0,038.6,030.0,35.2,0000.0,0010.63,0006.64,0006.36
2023-08-27 02:15:00,SystemResetWarning,0836.6,5.03,000.00,030.7,025.0,000.0,038.6,030.2,35.4,0000.0,0010.55,0006.65,0006.37
2023-08-27 02:16:00,SystemResetWarning,0836.7,4.99,000.00,030.9,025.5,000.0,038.6,030.4,34.8,0000.0,0010.49,0006.66,0006.39
2023-08-27 02:17:00,SystemResetWarning,0836.6,4.99,000.00,031.0,025.9,000.0,038.7,030.6,35.5,0000.0,0010.33,0006.65,0006.40
2023-08-27 02:18:00,SystemResetWarning,0836.6,5.02,000.00,031.2,026.2,000.0,038.7,030.7,36.0,0000.0,0010.32,0006.67,0006.42
2023-08-27 02:19:00,SystemResetWarning,0836.7,4.97,000.00,031.5,026.5,000.0,038.7,030.9,36.0,0000.0,0009.65,0006.69,0006.45
2023-08-27 02:20:00,SystemResetWarning,0836.7,5.02,000.00,031.9,026.8,000.0,038.8,031.0,35.1,0000.0,0009.66,0006.71,0006.47
2023-08-27 02:21:00,SystemResetWarning,0836.8,5.00,000.00,032.2,027.0,000.0,038.9,031.2,34.4,-000.0,0009.29,0006.72,0006.47
2023-08-27 02:22:00,SystemResetWarning,0836.8,4.99,000.00,032.4,027.2,000.0,039.0,031.2,33.9,-000.0,0009.32,0006.74,0006.46
2023-08-27 02:23:00,SystemResetWarning,0836.7,5.00,000.00,032.5,027.3,000.0,039.2,031.2,33.2,0000.0,0009.13,0006.71,0006.45
2023-08-27 02:24:00,SystemResetWarning,0836.7,5.00,000.00,032.5,027.1,000.0,039.3,031.2,32.9,0000.0,0008.94,0006.70,0006.43
2023-08-27 02:25:00,SystemResetWarning,0836.8,5.00,000.00,032.6,025.4,000.0,039.2,031.0,32.9,0000.3,0008.80,0006.68,0006.41
2023-08-27 02:26:00,SystemResetWarning,0836.8,5.01,000.00,032.6,024.2,000.0,039.2,030.7,33.4,0000.1,0008.77,0006.67,0006.41
2023-08-27 02:27:00,SystemResetWarning,0836.8,5.01,000.00,032.4,024.0,000.0,039.2,030.5,33.2,0000.1,0008.93,0006.66,0006.38
2023-08-27 02:28:00,SystemResetWarning,0836.8,5.00,000.00,032.2,024.4,000.0,039.3,030.4,33.3,-000.0,0008.98,0006.65,0006.36
2023-08-27 02:29:00,SystemResetWarning,0836.8,5.00,000.00,032.0,024.8,000.0,039.4,030.4,33.3,0000.0,0008.98,0006.63,0006.34
2023-08-27 02:30:00,SystemResetWarning,0836.8,5.00,000.00,031.9,025.3,000.0,039.5,030.5,33.1,0000.0,0009.27,0006.60,0006.30
2023-08-27 02:31:00,SystemResetWarning,0836.8,5.00,000.00,031.8,025.7,000.0,039.5,030.6,32.6,0000.0,0009.44,0006.58,0006.29
2023-08-27 02:32:00,SystemResetWarning,0836.7,5.00,000.00,031.7,026.1,000.0,039.5,030.7,32.5,0000.0,0009.41,0006.59,0006.31
2023-08-27 02:33:00,SystemResetWarning,0836.8,5.00,000.00,031.6,026.4,000.0,039.5,030.7,32.5,-000.8,0009.36,0006.56,0006.32
2023-08-27 02:34:00,SystemResetWarning,0836.8,5.00,000.00,031.6,026.7,000.0,039.5,030.8,32.6,-000.7,0009.38,0006.58,0006.34
2023-08-27 02:35:00,SystemResetWarning,0836.8,5.00,000.00,031.5,026.9,000.0,039.5,030.8,32.6,0000.0,0009.32,0006.57,0006.34
2023-08-27 02:36:00,SystemResetWarning,0836.9,4.99,000.00,031.5,027.1,000.0,039.5,030.9,32.7,0000.0,0009.34,0006.59,0006.37
2023-08-27 02:37:00,SystemResetWarning,0836.9,4.99,000.00,031.4,027.3,000.0,039.5,030.9,33.0,0000.0,0009.43,0006.62,0006.39
2023-08-27 02:38:00,SystemResetWarning,0836.9,5.00,000.00,031.4,027.4,000.0,039.5,031.0,33.1,0000.0,0009.38,0006.66,0006.43
2023-08-27 02:39:00,SystemResetWarning,0836.9,5.00,000.00,031.3,027.5,000.0,039.5,031.0,32.9,0000.1,0009.31,0006.70,0006.47
2023-08-27 02:40:00,SystemResetWarning,0837.0,5.00,000.00,031.3,026.3,000.0,039.3,030.9,32.8,0000.1,0009.42,0006.75,0006.50
2023-08-27 02:41:00,SystemResetWarning,0836.9,5.00,000.00,031.3,024.6,000.0,039.2,030.6,32.7,0000.1,0009.33,0006.79,0006.54
2023-08-27 02:42:00,SystemResetWarning,0837.0,5.01,000.00,031.2,024.0,000.0,039.0,030.4,32.9,0000.3,0008.98,0006.82,0006.58
2023-08-27 02:43:00,SystemResetWarning,0837.0,5.01,000.00,030.9,024.1,000.0,039.0,030.1,33.4,-000.1,0009.03,0006.84,0006.59
2023-08-27 02:44:00,SystemResetWarning,0836.9,5.00,000.00,030.7,024.6,000.0,039.0,030.1,33.8,0000.1,0009.13,0006.87,0006.61
2023-08-27 02:45:00,SystemResetWarning,0837.0,5.00,000.00,030.6,025.0,000.0,039.0,030.2,33.9,0000.5,0009.17,0006.89,0006.63
2023-08-27 02:46:00,SystemResetWarning,0836.9,4.99,000.00,030.5,025.5,000.0,038.9,030.3,34.1,0000.3,0009.33,0006.91,0006.66
2023-08-27 02:47:00,SystemResetWarning,0836.9,5.00,000.00,030.4,025.9,000.0,038.9,030.4,34.3,0000.0,0009.51,0006.92,0006.68
2023-08-27 02:48:00,SystemResetWarning,0836.9,5.00,000.00,030.4,026.2,000.0,038.9,030.5,34.4,-000.3,0009.60,0006.97,0006.69
2023-08-27 02:49:00,SystemResetWarning,0836.9,5.00,000.00,030.4,026.5,000.0,038.8,030.5,34.4,-000.6,0009.68,0007.01,0006.70
2023-08-27 02:50:00,SystemResetWarning,0836.9,5.00,000.00,030.3,026.8,000.0,038.8,030.6,34.5,-000.5,0009.70,0007.01,0006.69
2023-08-27 02:51:00,SystemResetWarning,0836.9,5.00,000.00,030.3,027.0,000.0,038.8,030.6,34.6,-000.5,0009.61,0006.97,0006.68
2023-08-27 02:52:00,SystemResetWarning,0837.0,4.99,000.00,030.3,027.1,000.0,038.7,030.7,34.7,0000.0,0009.58,0006.95,0006.66
2023-08-27 02:53:00,SystemResetWarning,0837.0,4.98,000.00,030.3,027.3,000.0,038.7,030.7,35.2,0000.0,0009.54,0006.92,0006.63
2023-08-27 02:54:00,SystemResetWarning,0836.9,5.03,000.00,030.3,027.4,000.0,038.7,030.8,36.1,0000.0,0009.54,0006.91,0006.60
2023-08-27 02:55:00,SystemResetWarning,0836.9,4.99,000.00,030.6,027.0,000.0,038.6,030.9,35.1,0000.0,0009.50,0006.88,0006.55
2023-08-27 02:56:00,SystemResetWarning,0837.0,4.99,000.00,030.9,025.3,000.0,038.5,030.8,34.8,0000.0,0009.45,0006.84,0006.51
2023-08-27 02:57:00,SystemResetWarning,0837.0,5.01,000.00,031.0,024.1,000.0,038.3,030.6,34.7,0000.0,0009.45,0006.82,0006.46
2023-08-27 02:58:00,SystemResetWarning,0836.9,4.99,000.00,030.9,024.0,000.0,038.3,030.2,35.1,0000.0,0009.84,0006.81,0006.44
2023-08-27 02:59:00,SystemResetWarning,0836.9,5.03,000.00,030.9,024.3,000.0,038.4,030.1,35.8,0000.0,0009.75,0006.75,0006.42
